TimeCST,TemperatureF,Dew PointF,Humidity,Sea Level PressureIn,VisibilityMPH,Wind Direction,Wind SpeedMPH,Gust SpeedMPH,PrecipitationIn,Events,Conditions,WindDirDegrees,DateUTC
12:52 AM,46.0,35.1,66,30.09,10.0,WSW,9.2,-,N/A,,Clear,240,2013-12-17 06:52:00
1:52 AM,45.0,34.0,65,30.11,10.0,WSW,6.9,-,N/A,,Clear,240,2013-12-17 07:52:00
2:52 AM,45.0,35.1,68,30.11,10.0,WSW,6.9,-,N/A,,Clear,250,2013-12-17 08:52:00
3:52 AM,43.0,34.0,71,30.10,10.0,SW,5.8,-,N/A,,Clear,230,2013-12-17 09:52:00
4:52 AM,42.1,34.0,73,30.11,10.0,WSW,5.8,-,N/A,,Clear,240,2013-12-17 10:52:00
5:52 AM,39.9,34.0,79,30.13,10.0,WNW,5.8,-,N/A,,Clear,290,2013-12-17 11:52:00
6:52 AM,37.9,33.1,83,30.15,10.0,West,4.6,-,N/A,,Clear,280,2013-12-17 12:52:00
7:22 AM,39.2,33.8,81,30.15,10.0,WNW,4.6,-,N/A,,Mostly Cloudy,290,2013-12-17 13:22:00
7:52 AM,37.9,35.1,89,30.17,10.0,NW,4.6,-,N/A,,Mostly Cloudy,320,2013-12-17 13:52:00
8:10 AM,39.2,35.6,87,30.15,10.0,West,3.5,-,N/A,,Partly Cloudy,260,2013-12-17 14:10:00
8:52 AM,41.0,36.0,82,30.16,10.0,West,5.8,-,N/A,,Clear,260,2013-12-17 14:52:00
9:52 AM,46.0,37.0,71,30.15,10.0,SW,5.8,-,N/A,,Clear,220,2013-12-17 15:52:00
10:52 AM,48.0,37.0,66,30.13,10.0,NW,9.2,-,N/A,,Clear,320,2013-12-17 16:52:00
11:52 AM,48.0,37.0,66,30.13,10.0,NW,12.7,-,N/A,,Partly Cloudy,320,2013-12-17 17:52:00
12:52 PM,48.9,35.1,59,30.12,10.0,West,11.5,-,N/A,,Clear,280,2013-12-17 18:52:00
1:52 PM,48.9,33.1,54,30.14,10.0,NNW,15.0,25.3,N/A,,Clear,330,2013-12-17 19:52:00
2:52 PM,48.0,28.9,48,30.17,10.0,NW,12.7,-,N/A,,Clear,320,2013-12-17 20:52:00
3:52 PM,45.0,30.0,56,30.19,10.0,NNW,9.2,-,N/A,,Clear,330,2013-12-17 21:52:00
4:52 PM,39.0,28.9,67,30.21,10.0,NNW,5.8,-,N/A,,Clear,330,2013-12-17 22:52:00
5:52 PM,39.9,26.1,58,30.23,10.0,WNW,4.6,-,N/A,,Clear,290,2013-12-17 23:52:00
6:52 PM,37.9,26.1,62,30.26,10.0,WNW,5.8,-,N/A,,Clear,290,2013-12-18 00:52:00
7:52 PM,37.9,26.1,62,30.27,10.0,WNW,4.6,-,N/A,,Clear,300,2013-12-18 01:52:00
8:52 PM,35.1,26.1,70,30.28,10.0,West,3.5,-,N/A,,Clear,270,2013-12-18 02:52:00
9:52 PM,32.0,26.1,79,30.30,10.0,West,3.5,-,N/A,,Clear,280,2013-12-18 03:52:00
10:52 PM,30.9,25.0,79,30.30,10.0,WNW,3.5,-,N/A,,Clear,290,2013-12-18 04:52:00
11:52 PM,28.9,25.0,85,30.30,10.0,Calm,Calm,-,N/A,,Clear,0,2013-12-18 05:52:00